Weather History for KFFM - February, 2014

Change the Weather History Date:

Friday, February 7, 2014

  Actual Average Record
Temperature  
Mean Temperature -4 °F -  
Max Temperature 6 °F 19 °F 50 °F (2002)
Min Temperature -14 °F 0 °F -28 °F (1972)
Degree Days  
Heating Degree Days 69    
Moisture  
Dew Point -13 °F    
Average Humidity 66    
Maximum Humidity 78    
Minimum Humidity 52    
Precipitation  
Precipitation 0.00 in - - ()
Sea Level Pressure  
Sea Level Pressure 30.10 in    
Wind  
Wind Speed 6 mph (SSW)    
Max Wind Speed 9 mph    
Max Gust Speed -    
Visibility 10 miles    
Events      
Averages and records for this station are not official NWS values.
T = Trace of Precipitation, MM = Missing Value Source: NWS Daily Summary

Daily Weather History Graph

Daily Weather History Graph

Search for Another Location

Airport or City:

Trip Planner

Search our weather history database for the weather conditions in past years. The results will help you decide how hot, cold, wet, or windy it might be!

Date:

Astronomy

Feb. 07, 2014 Rise Set
Actual Time 7:39 AM CST 5:38 PM CST
Civil Twilight 7:08 AM CST 6:10 PM CST
Nautical Twilight 6:32 AM CST 6:45 PM CST
Astronomical Twilight 5:57 AM CST 7:20 PM CST
Moon 11:46 AM CST (2/7) 1:59 AM CST (2/7)
Length of Visible Light 11h 01m
Length of Day
9h 58m
First Quarter, 59% of the Moon is Illuminated
Feb 7
First Quarter
Feb 14
Full
Feb 22
Last Quarter
Mar 1
New
Mar 8
First Quarter

Hourly Weather History & Observations

Time (CST) Temp. Windchill Dew Point Humidity Pressure Visibility Wind Dir Wind Speed Gust Speed Precip Events Conditions
12:13 AM -9.4 °F -25.6 °F -14.8 °F 77% 30.15 in 10.0 mi WSW 8.1 mph - N/A   Clear
12:33 AM -9.4 °F -25.6 °F -14.8 °F 77% 30.15 in 10.0 mi SW 8.1 mph - N/A   Clear
12:52 AM -9.4 °F -25.6 °F -14.8 °F 77% 30.14 in 10.0 mi WSW 8.1 mph - N/A   Clear
1:13 AM -9.4 °F -22.7 °F -16.6 °F 71% 30.14 in 10.0 mi WSW 5.8 mph - N/A   Clear
1:33 AM -11.2 °F -24.8 °F -16.6 °F 77% 30.14 in 10.0 mi WSW 5.8 mph - N/A   Clear
1:54 AM -9.4 °F -25.6 °F -16.6 °F 71% 30.13 in 10.0 mi WSW 8.1 mph - N/A   Clear
2:13 AM -9.4 °F -24.3 °F -16.6 °F 71% 30.13 in 10.0 mi WSW 6.9 mph - N/A   Clear
2:33 AM -9.4 °F -25.6 °F -16.6 °F 71% 30.13 in 10.0 mi WSW 8.1 mph - N/A   Clear
2:53 AM -9.4 °F -25.6 °F -16.6 °F 71% 30.12 in 10.0 mi WSW 8.1 mph - N/A   Clear
3:13 AM -11.2 °F -24.8 °F -18.4 °F 70% 30.12 in 10.0 mi WSW 5.8 mph - N/A   Clear
3:33 AM -11.2 °F -26.4 °F -18.4 °F 70% 30.11 in 10.0 mi WSW 6.9 mph - N/A   Clear
3:53 AM -11.2 °F -29.0 °F -18.4 °F 70% 30.11 in 10.0 mi WSW 9.2 mph - N/A   Clear
4:13 AM -11.2 °F -26.4 °F -18.4 °F 70% 30.11 in 10.0 mi WSW 6.9 mph - N/A   Clear
4:33 AM -13.0 °F -28.6 °F -18.4 °F 77% 30.11 in 10.0 mi WSW 6.9 mph - N/A   Clear
4:53 AM -11.2 °F -26.4 °F -18.4 °F 70% 30.11 in 10.0 mi SW 6.9 mph - N/A   Clear
5:13 AM -11.2 °F -26.4 °F -18.4 °F 70% 30.11 in 10.0 mi SW 6.9 mph - N/A   Clear
5:33 AM -13.0 °F -27.0 °F -20.2 °F 70% 30.11 in 10.0 mi SSW 5.8 mph - N/A   Clear
5:53 AM -13.0 °F -25.1 °F -20.2 °F 70% 30.11 in 10.0 mi SSW 4.6 mph - N/A   Clear
6:13 AM -13.0 °F -27.0 °F -20.2 °F 70% 30.11 in 10.0 mi SSW 5.8 mph - N/A   Clear
6:33 AM -14.8 °F -32.2 °F -20.2 °F 77% 30.10 in 10.0 mi SSW 8.1 mph - N/A   Clear
6:53 AM -14.8 °F -30.8 °F -20.2 °F 77% 30.10 in 10.0 mi SSW 6.9 mph - N/A   Clear
7:13 AM -14.8 °F -30.8 °F -20.2 °F 77% 30.10 in 10.0 mi SSW 6.9 mph - N/A   Clear
7:33 AM -13.0 °F -27.0 °F -20.2 °F 70% 30.10 in 10.0 mi SSW 5.8 mph - N/A   Clear
7:53 AM -14.8 °F -30.8 °F -20.2 °F 77% 30.10 in 10.0 mi SW 6.9 mph - N/A   Clear
8:13 AM -13.0 °F -30.0 °F -20.2 °F 70% 30.10 in 10.0 mi SW 8.1 mph - N/A   Clear
8:33 AM -14.8 °F -29.1 °F -20.2 °F 77% 30.10 in 10.0 mi SSW 5.8 mph - N/A   Clear
8:53 AM -13.0 °F -27.0 °F -20.2 °F 70% 30.10 in 10.0 mi SSW 5.8 mph - N/A   Clear
9:13 AM -13.0 °F -25.1 °F -20.2 °F 70% 30.10 in 10.0 mi South 4.6 mph - N/A   Clear
9:33 AM -11.2 °F -26.4 °F -18.4 °F 70% 30.10 in 10.0 mi SSW 6.9 mph - N/A   Clear
9:53 AM -9.4 °F -25.6 °F -18.4 °F 65% 30.11 in 10.0 mi SSW 8.1 mph - N/A   Clear
10:13 AM -7.6 °F -23.4 °F -16.6 °F 65% 30.11 in 10.0 mi SSW 8.1 mph - N/A   Clear
10:33 AM -7.6 °F -22.1 °F -16.6 °F 65% 30.12 in 10.0 mi SSW 6.9 mph - N/A   Clear
10:53 AM -5.8 °F -18.4 °F -16.6 °F 60% 30.11 in 10.0 mi South 5.8 mph - N/A   Clear
11:13 AM -4.0 °F -17.8 °F -14.8 °F 60% 30.12 in 10.0 mi SSW 6.9 mph - N/A   Clear
11:33 AM -2.2 °F -15.6 °F -13.0 °F 60% 30.11 in 10.0 mi SSW 6.9 mph - N/A   Clear
11:53 AM -0.4 °F -14.7 °F -11.2 °F 60% 30.11 in 10.0 mi SSW 8.1 mph - N/A   Clear
12:13 PM -0.4 °F -13.4 °F -11.2 °F 60% 30.11 in 10.0 mi SSW 6.9 mph - N/A   Clear
12:33 PM 1.4 °F -12.5 °F -9.4 °F 61% 30.10 in 10.0 mi SW 8.1 mph - N/A   Clear
12:53 PM 3.2 °F -9.1 °F -9.4 °F 56% 30.10 in 10.0 mi WSW 6.9 mph - N/A   Clear
1:13 PM 3.2 °F -7.8 °F -9.4 °F 56% 30.10 in 10.0 mi WSW 5.8 mph - N/A   Clear
1:33 PM 3.2 °F -6.2 °F -7.6 °F 61% 30.09 in 10.0 mi West 4.6 mph - N/A   Clear
1:53 PM 6.8 °F -4.8 °F -7.6 °F 52% 30.08 in 10.0 mi WSW 6.9 mph - N/A   Clear
2:14 PM 6.8 °F -2.0 °F -5.8 °F 56% 30.08 in 10.0 mi West 4.6 mph - N/A   Clear
2:33 PM 6.8 °F -0.1 °F -7.6 °F 52% 30.07 in 10.0 mi West 3.5 mph - N/A   Clear
2:53 PM 6.8 °F - -7.6 °F 52% 30.07 in 10.0 mi Calm Calm - N/A   Clear
3:13 PM 6.8 °F - -7.6 °F 52% 30.07 in 10.0 mi Calm Calm - N/A   Clear
3:33 PM 6.8 °F - -7.6 °F 52% 30.07 in 10.0 mi Calm Calm - N/A   Clear
3:53 PM 6.8 °F - -7.6 °F 52% 30.07 in 10.0 mi Calm Calm - N/A   Clear
4:13 PM 6.8 °F - -7.6 °F 52% 30.07 in 10.0 mi Calm Calm - N/A   Clear
4:33 PM 6.8 °F - -7.6 °F 52% 30.07 in 10.0 mi Calm Calm - N/A   Clear
4:53 PM 6.8 °F -0.1 °F -7.6 °F 52% 30.07 in 10.0 mi West 3.5 mph - N/A   Clear
5:13 PM 5.0 °F -4.1 °F -7.6 °F 56% 30.08 in 10.0 mi SW 4.6 mph - N/A   Clear
5:33 PM 3.2 °F -7.8 °F -7.6 °F 61% 30.08 in 10.0 mi SW 5.8 mph - N/A   Clear
5:53 PM 1.4 °F -8.3 °F -9.4 °F 61% 30.09 in 10.0 mi SSW 4.6 mph - N/A   Clear
6:13 PM 1.4 °F -9.9 °F -7.6 °F 66% 30.09 in 10.0 mi SSW 5.8 mph - N/A   Clear
6:33 PM 1.4 °F -8.3 °F -7.6 °F 66% 30.09 in 10.0 mi SW 4.6 mph - N/A   Clear
6:53 PM 1.4 °F -6.2 °F -7.6 °F 66% 30.10 in 10.0 mi South 3.5 mph - N/A   Clear
7:13 PM 1.4 °F -8.3 °F -7.6 °F 66% 30.10 in 10.0 mi SSW 4.6 mph - N/A   Clear
7:33 PM 1.4 °F -8.3 °F -7.6 °F 66% 30.10 in 10.0 mi SSW 4.6 mph - N/A   Clear
7:53 PM 1.4 °F -8.3 °F -7.6 °F 66% 30.10 in 10.0 mi South 4.6 mph - N/A   Clear
8:13 PM -0.4 °F -8.3 °F -9.4 °F 66% 30.09 in 10.0 mi South 3.5 mph - N/A   Clear
8:33 PM -0.4 °F -12.0 °F -9.4 °F 66% 30.09 in 10.0 mi South 5.8 mph - N/A   Clear
8:53 PM -2.2 °F -15.6 °F -11.2 °F 66% 30.09 in 10.0 mi South 6.9 mph - N/A   Clear
9:13 PM -2.2 °F -15.6 °F -11.2 °F 66% 30.09 in 10.0 mi South 6.9 mph - N/A   Clear
9:33 PM -2.2 °F -15.6 °F -11.2 °F 66% 30.09 in 10.0 mi South 6.9 mph - N/A   Clear
9:53 PM -2.2 °F -14.2 °F -11.2 °F 66% 30.09 in 10.0 mi South 5.8 mph - N/A   Clear
10:13 PM -2.2 °F -14.2 °F -9.4 °F 71% 30.08 in 10.0 mi SSE 5.8 mph - N/A   Clear
10:33 PM -2.2 °F -12.5 °F -9.4 °F 71% 30.08 in 10.0 mi SSE 4.6 mph - N/A   Clear
10:53 PM -2.2 °F -10.4 °F -9.4 °F 71% 30.08 in 10.0 mi SE 3.5 mph - N/A   Clear
11:13 PM -2.2 °F -12.5 °F -7.6 °F 78% 30.09 in 10.0 mi SE 4.6 mph - N/A   Clear
11:33 PM -2.2 °F -12.5 °F -9.4 °F 71% 30.09 in 10.0 mi SE 4.6 mph - N/A   Clear
11:53 PM -2.2 °F -12.5 °F -9.4 °F 71% 30.10 in 10.0 mi SE 4.6 mph - N/A   Clear